Fort Rucker / Ozark, AL

8:24 PM CDT on May 25, 2017 (GMT -0500)
Fort Rucker / Ozark

Weather History for KLOR - February, 2013

Change the Weather History Date:

Friday, February 1, 2013

  Actual Average (KOZR) Record (KOZR)
Temperature  
Mean Temperature 44 °F -  
Max Temperature 57 °F 57 °F 75 °F (2016)
Min Temperature 28 °F 38 °F 28 °F (2000)
Degree Days  
Heating Degree Days 22    
Moisture  
Dew Point 25 °F    
Average Humidity 55    
Maximum Humidity 89    
Minimum Humidity 22    
Precipitation  
Precipitation 0.00 in - - ()
Sea Level Pressure  
Sea Level Pressure 30.33 in    
Wind  
Wind Speed 4 mph (NNW)    
Max Wind Speed 15 mph    
Max Gust Speed 23 mph    
Visibility 10 miles    
Events      
Averages and records for this station are not official NWS values.
T = Trace of Precipitation, MM = Missing Value Source: NWS Daily Summary

Daily Weather History Graph

Daily Weather History Graph

Search for Another Location

Airport or City:

Trip Planner

Search our weather history database for the weather conditions in past years. The results will help you decide how hot, cold, wet, or windy it might be!

Date:

Astronomy

Feb. 01, 2013 Rise Set
Actual Time 6:35 AM CST 5:18 PM CST
Civil Twilight 6:09 AM CST 5:43 PM CST
Nautical Twilight 5:40 AM CST 6:12 PM CST
Astronomical Twilight 5:12 AM CST 6:41 PM CST
Moon 10:56 PM CST (2/1) 9:33 AM CST (2/1)
Length of Visible Light 11h 33m
Length of Day
10h 43m
Waning Gibbous, 70% of the Moon is Illuminated
Feb 1
Waning Gibbous
Feb 3
Last Quarter
Feb 10
New
Feb 17
First Quarter
Feb 25
Full

Hourly Weather History & Observations

Time (CST) Temp. Windchill Dew Point Humidity Pressure Visibility Wind Dir Wind Speed Gust Speed Precip Events Conditions
12:53 AM 33.1 °F - 30.0 °F 89% 30.30 in 10.0 mi Calm Calm - N/A   Clear
1:53 AM 33.1 °F - 30.0 °F 89% 30.28 in 10.0 mi Calm Calm - N/A   Clear
2:53 AM 34.0 °F - 30.9 °F 89% 30.28 in 10.0 mi Calm Calm - N/A   Clear
3:53 AM 35.1 °F - 30.9 °F 85% 30.28 in 10.0 mi Calm Calm - N/A   Clear
4:53 AM 34.0 °F - 30.9 °F 89% 30.27 in 10.0 mi Calm Calm - N/A   Clear
5:53 AM 39.0 °F 36.8 °F 33.1 °F 79% 30.30 in 10.0 mi West 3.5 mph - N/A   Clear
6:53 AM 43.0 °F 38.8 °F 32.0 °F 65% 30.32 in 10.0 mi WNW 6.9 mph - N/A   Clear
7:53 AM 44.1 °F 38.6 °F 32.0 °F 63% 30.34 in 10.0 mi NW 10.4 mph - N/A   Clear
8:53 AM 46.9 °F - 32.0 °F 56% 30.36 in 10.0 mi North 9.2 mph - N/A   Clear
9:53 AM 48.9 °F - 30.0 °F 48% 30.38 in 10.0 mi North 9.2 mph - N/A   Clear
10:53 AM 53.1 °F - 28.0 °F 38% 30.38 in 10.0 mi North 10.4 mph 23.0 mph N/A   Clear
11:53 AM 55.9 °F - 27.0 °F 33% 30.35 in 10.0 mi North 9.2 mph - N/A   Clear
12:28 PM 57.2 °F - 19.4 °F 23% 30.33 in 10.0 mi NW 13.8 mph 20.7 mph N/A   Partly Cloudy
12:53 PM 57.9 °F - 19.0 °F 22% 30.33 in 10.0 mi North 15.0 mph 20.7 mph N/A   Clear
1:53 PM 57.9 °F - 19.9 °F 23% 30.32 in 10.0 mi NNW 10.4 mph 18.4 mph N/A   Clear
2:53 PM 57.0 °F - 19.0 °F 23% 30.32 in 10.0 mi NNW 12.7 mph - N/A   Clear
3:53 PM 55.9 °F - 18.0 °F 23% 30.33 in 10.0 mi North 11.5 mph 19.6 mph N/A   Clear
4:53 PM 52.0 °F - 17.1 °F 25% 30.32 in 10.0 mi Variable 4.6 mph - N/A   Clear
5:53 PM 46.0 °F 43.9 °F 17.1 °F 31% 30.34 in 10.0 mi North 4.6 mph - N/A   Clear
6:53 PM 41.0 °F - 19.9 °F 43% 30.35 in 10.0 mi Calm Calm - N/A   Clear
7:53 PM 37.9 °F - 19.9 °F 48% 30.35 in 10.0 mi Calm Calm - N/A   Clear
8:53 PM 34.0 °F - 21.9 °F 61% 30.36 in 10.0 mi Calm Calm - N/A   Clear
9:53 PM 32.0 °F - 24.1 °F 73% 30.37 in 10.0 mi Calm Calm - N/A   Clear
10:53 PM 30.0 °F - 23.0 °F 75% 30.37 in 10.0 mi Calm Calm - N/A   Clear
11:53 PM 28.9 °F - 24.1 °F 82% 30.36 in 10.0 mi Calm Calm - N/A   Clear